Weather History for LKKV - March, 2012

Change the Weather History Date:

Monday, March 5, 2012

  Actual Average Record
Temperature  
Mean Temperature 32 °F -  
Max Temperature 41 °F - - ()
Min Temperature 24 °F - - ()
Degree Days  
Heating Degree Days 32    
Moisture  
Dew Point 24 °F    
Average Humidity 73    
Maximum Humidity 93    
Minimum Humidity 49    
Precipitation  
Precipitation 0.00 in - - ()
Sea Level Pressure  
Sea Level Pressure 30.07 in    
Wind  
Wind Speed 5 mph ()    
Max Wind Speed 12 mph    
Max Gust Speed -    
Visibility 6.2 miles    
Events      
T = Trace of Precipitation, MM = Missing Value Source: Averaged Metar Reports

Daily Weather History Graph

Daily Weather History Graph

Search for Another Location

Airport or City:

Trip Planner

Search our weather history database for the weather conditions in past years. The results will help you decide how hot, cold, wet, or windy it might be!

Date:

Astronomy

Mar. 05, 2012 Rise Set
Actual Time 6:42 AM CET 5:57 PM CET
Civil Twilight 6:10 AM CET 6:29 PM CET
Nautical Twilight 5:33 AM CET 7:07 PM CET
Astronomical Twilight 4:55 AM CET 7:45 PM CET
Moon 2:41 PM CET (3/5) 4:48 AM CET (3/5)
Length of Visible Light 12h 19m
Length of Day
11h 14m
Waxing Gibbous, 89% of the Moon is Illuminated
Mar 5
Waxing Gibbous
Mar 8
Full
Mar 15
Last Quarter
Mar 22
New
Mar 30
First Quarter

Hourly Weather History & Observations

Time (CET) Temp. Windchill Dew Point Humidity Pressure Visibility Wind Dir Wind Speed Gust Speed Precip Events Conditions
12:00 AM 28.4 °F 24.6 °F 23.0 °F 80% 30.04 in - East 3.5 mph - N/A   Clear
1:00 AM 28.4 °F 23.3 °F 23.0 °F 80% 30.04 in - ENE 4.6 mph - N/A   Clear
2:00 AM 28.4 °F 23.3 °F 23.0 °F 80% 30.04 in - ENE 4.6 mph - N/A   Clear
3:00 AM 28.4 °F 20.4 °F 23.0 °F 80% 30.01 in - NE 8.1 mph - N/A   Clear
4:00 AM 28.4 °F 22.2 °F 21.2 °F 74% 30.01 in - NE 5.8 mph - N/A   Clear
5:00 AM 26.6 °F 20.0 °F 21.2 °F 80% 30.01 in - NE 5.8 mph - N/A   Clear
6:00 AM 26.6 °F 17.5 °F 21.2 °F 80% 30.01 in - NE 9.2 mph - N/A   Clear
7:00 AM 24.8 °F - 19.4 °F 80% 30.01 in - Variable 2.3 mph - N/A   Clear
7:30 AM 24.8 °F 19.1 °F 19.4 °F 80% 30.01 in - East 4.6 mph - N/A   Clear
8:00 AM 24.8 °F 17.9 °F 21.2 °F 86% 30.04 in - ENE 5.8 mph - N/A   Clear
8:30 AM 26.6 °F 20.0 °F 21.2 °F 80% 30.04 in - NE 5.8 mph - N/A   Clear
9:00 AM 28.4 °F 24.6 °F 21.2 °F 74% 30.04 in - NNE 3.5 mph - N/A   Clear
9:30 AM 28.4 °F 22.2 °F 23.0 °F 80% 30.04 in - NNW 5.8 mph - N/A   Clear
10:00 AM 32.0 °F 28.7 °F 23.0 °F 69% 30.04 in - NNE 3.5 mph - N/A   Clear
10:30 AM 35.6 °F 28.6 °F 21.2 °F 56% 30.06 in - East 9.2 mph - N/A   Clear
11:00 AM 35.6 °F 29.2 °F 21.2 °F 56% 30.06 in - ESE 8.1 mph - N/A   Clear
11:30 AM 37.4 °F 30.3 °F 23.0 °F 56% 30.06 in - East 10.4 mph - N/A   Clear
12:00 PM 39.2 °F 35.0 °F 23.0 °F 52% 30.06 in - SE 5.8 mph - N/A   Clear
12:30 PM 39.2 °F 35.0 °F 21.2 °F 49% 30.09 in - South 5.8 mph - N/A   Clear
1:00 PM 41.0 °F 36.4 °F 23.0 °F 49% 30.06 in - ESE 6.9 mph - N/A   Clear
1:30 PM 41.0 °F 39.0 °F 24.8 °F 53% 30.06 in - Variable 3.5 mph - N/A   Clear
2:00 PM 41.0 °F 39.0 °F 23.0 °F 49% 30.06 in - Variable 3.5 mph - N/A   Clear
2:30 PM 41.0 °F 35.8 °F 23.0 °F 49% 30.06 in - West 8.1 mph - N/A   Clear
3:00 PM 39.2 °F 32.5 °F 24.8 °F 56% 30.06 in - West 10.4 mph - N/A   Clear
3:30 PM 37.4 °F 29.8 °F 28.4 °F 70% 30.09 in - West 11.5 mph - N/A   Clear
4:00 PM 35.6 °F 28.0 °F 28.4 °F 75% 30.09 in - WSW 10.4 mph - N/A   Clear
4:30 PM 35.6 °F 29.2 °F 28.4 °F 75% 30.09 in - WSW 8.1 mph - N/A   Clear
5:00 PM 35.6 °F 28.6 °F 28.4 °F 75% 30.09 in - WSW 9.2 mph - N/A   Clear
5:30 PM 33.8 °F 28.6 °F 28.4 °F 81% 30.12 in - WSW 5.8 mph - N/A   Clear
6:00 PM 33.8 °F 29.6 °F 28.4 °F 81% 30.12 in 6.2 mi WSW 4.6 mph - N/A   Partly Cloudy
6:30 PM 33.8 °F 29.6 °F 28.4 °F 81% 30.12 in 6.2 mi WSW 4.6 mph - N/A   Mostly Cloudy
7:00 PM 33.8 °F - 28.4 °F 81% 30.12 in 6.2 mi Variable 2.3 mph - N/A   Mostly Cloudy
7:30 PM 32.0 °F 28.7 °F 28.4 °F 87% 30.12 in 6.2 mi WSW 3.5 mph - N/A   Mostly Cloudy
8:00 PM 32.0 °F - 28.4 °F 87% 30.15 in 6.2 mi Variable 1.2 mph - N/A   Mostly Cloudy
9:00 PM 28.4 °F - 26.6 °F 93% 30.15 in 6.2 mi Variable 2.3 mph - N/A   Scattered Clouds
10:00 PM 32.0 °F - 30.2 °F 93% 30.15 in 6.2 mi West 1.2 mph - N/A   Mostly Cloudy
11:00 PM 32.0 °F - 30.2 °F 93% 30.18 in 6.2 mi Variable 1.2 mph - N/A   Mostly Cloudy